Погода в Саре

Россия / Оренбургская область     51°22′48″N   57°49′48″E
темп.,
°C
ветер,
м/с
пор.,
м/с
влажн.,
%
обл.,
%
осадки,
мм/ч
давл.,
гПа
погр.,
м
22 января, пт
пт2223:00−24з510100100 0.1 1024188
02:00−23з611100100 0.0 1024240
05:00−23з611100100 0.1 1024237
08:00−23з610100100 0.0 1023182
11:00−21зюз59100100 0.1 1023211
14:00−18зюз599699 0.1 1023283
17:00−16зюз6109699 0.3 1022415
20:00−16зюз51197100 0.3 1022337
23 января, сб
сб2323:00−17з4797100 0.4 1023198
02:00−18ссз2297100 0.1 102428
05:00−21ссв239784 0.1 102720
08:00−22св45950 0.0 103181
11:00−22всв489929 0.0 1034175
14:00−21в459998 0.0 1035177
17:00−22в359899 0.0 1035148
20:00−21юв3597100 0.0 1035158
24 января, вс
вс2423:00−19ююв3598100 0.4 1034168
02:00−16ю4796100 0.5 1033236
05:00−13ююз4996100 1.1 1031263
08:00−11юз51095100 0.4 1030257
11:00−7юз61195100 0.8 1030312
14:00−3юз71197100 0.6 1030438
17:00−1зюз71197100 1.3 1030640
20:00−1з71198100 0.9 1031576
25 января, пн
пн2523:00−1з61098100 1.6 1032494
02:00−2зюз51097100 0.9 1033467
05:00−3зюз51098100 1.3 1033342
08:00−3з5897100 0.1 1034360
11:00−4зюз4698100 0.1 1035199
14:00−4зюз469999 0.1 1035225
17:00−4зюз459799 0.1 1035360
20:00−4юз2498100 0.1 1035169
26 января, вт
вт2623:00−4ююз1297100 0.1 103556
02:00−4ююз2498100 0.1 1035174
05:00−4юз3598100 0.2 1035221
08:00−5юз3497100 0.1 1035261
11:00−6ю2497100 0.1 1036208
14:00−6ююз2495100 0.0 1035218
17:00−8ю239299 0.0 103522
20:00−10ю238685 0.0 103521